Home   Weather   Samara   Past weeks

Flag for Russia Past Weather in Samara, Russia — Yesterday and Last 2 Weeks

Now
41 °F

Sunny.


Feels Like: 37 °F
Forecast: 51 / 65 °F
Wind: 6 mph from Northwest

Location: Kazan'

Current Time: May 29, 2017 at 7:51:52 am

Latest Report: May 29, 2017 at 7:00 am


Visibility: 10 mi

Pressure: 29.98 "Hg

Humidity: 70%

Dew Point: 32 °F

Location of SamaraLocation

Past Weather in Samara — Graph

°F

Samara Temperature Yesterday

Maximum temperature yesterday: 48 °F (at 1:30 pm)
Minimum temperature yesterday: 36 °F (at 11:00 pm)
Average temperature yesterday: 43 °F

High & Low Weather Summary for the Past Weeks

 TemperatureHumidityPressure
High77 °F (May 25, 3:30 pm)100% (May 18, 6:00 am)30.33 "Hg (May 18, 6:00 am)
Low32 °F (May 29, 1:00 am)18% (May 17, 3:30 pm)29.53 "Hg (May 21, 12:30 pm)
Average54 °F57%29.96 "Hg
* Reported May 14 6:00 am — May 29 6:30 am, Samara. Weather by CustomWeather, © 2017

Note: Actual official high and low records may vary slightly from our data, if they occured in-between our weather recording intervals... More about our weather records

Advertising

Samara Weather History for the Previous 24 Hours

Scroll right to see more
 ConditionsComfort  
Time TempWeatherWind HumidityBarometerVisibility
6:30 am
Mon, May 29
37 °FSunny.6 mph75%29.98 "Hg10 mi
6:00 am36 °FSunny.3 mph81%29.98 "Hg10 mi
5:30 am34 °FSunny.6 mph81%29.98 "Hg10 mi
4:30 am32 °FSunny.6 mph75%29.98 "Hg10 mi
4:00 am32 °FClear.6 mph75%29.98 "Hg10 mi
3:30 am32 °FClear.6 mph75%29.98 "Hg10 mi
3:00 am34 °FClear.6 mph70%29.98 "Hg10 mi
2:30 am32 °FClear.8 mph75%29.98 "Hg10 mi
1:30 am32 °FClear.8 mph75%29.98 "Hg10 mi
1:00 am32 °FClear.8 mph75%29.95 "Hg10 mi
12:30 am34 °FClear.6 mph70%29.95 "Hg10 mi
11:30 pm
Sun, May 28
36 °FClear.6 mph65%29.95 "Hg10 mi
11:00 pm36 °FClear.8 mph65%29.92 "Hg10 mi
10:30 pm37 °FClear.8 mph60%29.92 "Hg10 mi
10:00 pm37 °FClear.8 mph60%29.92 "Hg10 mi
9:30 pm39 °FClear.8 mph52%29.92 "Hg10 mi
9:00 pm41 °FSunny.6 mph49%29.92 "Hg10 mi
8:30 pm43 °FSunny.8 mph46%29.89 "Hg10 mi
8:00 pm43 °FSunny.10 mph46%29.89 "Hg10 mi
7:30 pm43 °FSunny.10 mph46%29.89 "Hg10 mi
7:00 pm43 °FSunny.13 mph42%29.89 "Hg10 mi
6:30 pm45 °FSunny.13 mph39%29.86 "Hg10 mi
6:00 pm45 °FSunny.13 mph39%29.86 "Hg10 mi
5:30 pm45 °FPassing clouds.15 mph46%29.86 "HgN/A
5:00 pm45 °FOvercast.13 mph46%29.86 "HgN/A
4:30 pm45 °FSunny.15 mph49%29.86 "Hg10 mi
4:00 pm45 °FSunny.13 mph49%29.86 "Hg10 mi
3:30 pm45 °FSunny.15 mph49%29.86 "Hg10 mi
3:00 pm46 °FPassing clouds.13 mph46%29.86 "HgN/A
2:30 pm46 °FSunny.10 mph43%29.86 "Hg10 mi
2:00 pm46 °FSunny.13 mph46%29.83 "Hg10 mi
1:30 pm48 °FPartly sunny.10 mph46%29.86 "HgN/A
1:00 pm46 °FPartly sunny.10 mph46%29.86 "HgN/A
12:30 pm46 °FPartly sunny.10 mph50%29.86 "HgN/A
11:30 am46 °FPartly sunny.8 mph50%29.86 "HgN/A
11:00 am45 °FPartly sunny.6 mph49%29.86 "HgN/A
10:30 am45 °FPartly sunny.8 mph53%29.86 "HgN/A
10:00 am43 °FPartly sunny.8 mph53%29.86 "HgN/A
9:30 am43 °FPassing clouds.8 mph53%29.86 "HgN/A
9:00 am43 °FPassing clouds.10 mph57%29.86 "HgN/A
8:30 am43 °FPassing clouds.8 mph57%29.86 "HgN/A
8:00 am43 °FPassing clouds.10 mph57%29.86 "HgN/A
7:30 am41 °FSunny.10 mph61%29.86 "Hg10 mi
Weather by CustomWeather, © 2017

See weather overviewHow to use our weather pages